Regional Weather Roundup
Issued by NWS Boston, MA

Home | Current Version | Previous Version | Text Only | Print | Product List | Glossary On
Versions: 1 2 3 4 5 6 7 8 9 10 11 12 13 14 15 16 17 18 19 20 21 22 23 24 25 26 27 28 29 30 31 32 33 34 35 36 37 38 39 40 41 42 43 44 45 46 47 48 49 50
000
ASUS41 KBOX 290910
RWRBOX

REGIONAL WEATHER ROUNDUP
NATIONAL WEATHER SERVICE TAUNTON MA
400 AM EST MON DEC 29 2014

NOTE:  "FAIR" INDICATES FEW OR NO CLOUDS BELOW 12,000 FEET WITH NO
SIGNIFICANT WEATHER AND/OR OBSTRUCTIONS TO VISIBILITY.  THE FOLLOWING
OBSERVATION LOCATIONS DO NOT REPORT PRESENT WEATHER...PROVINCETOWN...
SMITHFIELD...BLOCK ISLAND...KEENE...AND OXFORD.

MAZALL-291000-
EASTERN MASSACHUSETTS

CITY           SKY/WX    TMP DP  RH WIND       PRES   REMARKS
BOSTON         PTCLDY    36  24  62 W7        30.06S WCI  30
BEVERLY        PTCLDY    34  19  54 W5        30.05R WCI  30
LAWRENCE       PTCLDY    33  20  58 W7        30.07R WCI  27
BEDFORD        CLEAR     30  23  75 SW7       30.05R WCI  23
BLUE HILL        N/A     30  23  75 W10       30.03R WCI  21
NORWOOD        CLEAR     33  23  66 W6        30.06R WCI  28
MARSHFIELD     CLEAR     34  28  80 W3        30.07S
PLYMOUTH       PTCLDY    34  26  72 W7        30.06R WCI  28
TAUNTON        CLEAR     35  25  66 W6        30.06R WCI  30
NEW BEDFORD    PTCLDY    35  25  66 NW6       30.06R WCI  30
$$

MAZALL-291000-
CAPE COD AND THE ISLANDS

CITY           SKY/WX    TMP DP  RH WIND       PRES   REMARKS
FALMOUTH       CLOUDY    36  27  69 NW7       30.06R WCI  30
HYANNIS        MOCLDY    37  27  67 NW8       30.03R WCI  31
CHATHAM        MOCLDY    38  29  70 VRB6      30.05R
PROVINCETOWN   PTCLDY    39  27  60 NW14      30.05R WCI  31
NANTUCKET      CLOUDY    40  28  62 NW14      30.04S
MARTHAS VNYRD  MOCLDY    38  25  59 NW13      30.06R WCI  30
$$

MAZALL-291000-
CENTRAL AND WESTERN MASSACHUSETTS

CITY           SKY/WX    TMP DP  RH WIND       PRES   REMARKS
WORCESTER      PTCLDY    29  19  66 CALM      30.03S
FITCHBURG      PTCLDY    28  23  81 CALM      30.06R
ORANGE         MOCLDY    29  23  78 CALM      30.04S
SPRINGFIELD    MOCLDY    31  24  75 SW6       30.07R WCI  25
WESTFIELD      CLOUDY    31  24  75 SW5       30.08R WCI  26
NORTH ADAMS    MOCLDY    33  24  69 W8        30.06S WCI  26
PITTSFIELD     MOCLDY    30  24  78 W10       30.03S WCI  21
$$

RIZALL-291000-
RHODE ISLAND

CITY           SKY/WX    TMP DP  RH WIND       PRES   REMARKS
PROVIDENCE     PTCLDY    35  21  56 NW7       30.08R WCI  29
NEWPORT        PTCLDY    36  23  59 NW10      30.06S WCI  28
BLOCK ISLAND   CLOUDY    37  21  52 N10G16    30.08S WCI  30
SMITHFIELD     PTCLDY    30  18  59 W3        30.05S
WESTERLY       MOCLDY    37  23  56 NW6       30.09R
$$

CTZALL-291000-
CONNECTICUT

CITY           SKY/WX    TMP DP  RH WIND       PRES   REMARKS
BRADLEY INTL   PTCLDY    32  24  72 SW3       30.08S
HARTFORD       PTCLDY    31  25  78 S3        30.09F
BRIDGEPORT     MOCLDY    38  25  59 W3        30.12R
DANBURY        MOCLDY    30  23  75 SW3       30.11S
GROTON         CLOUDY    36  25  64 NW8       30.09R WCI  30
NEW HAVEN      MOCLDY    40  24  53 CALM      30.11R
CHESTER        FAIR      36  23  60 NW5       30.08F WCI  32
MERIDEN        PTCLDY    30  24  78 CALM      30.10F
WILLIMANTIC    PTCLDY    31  23  72 CALM      30.09R
OXFORD         PTCLDY    30  19  64 CALM      30.08S
$$

MEZ002-015-021-024-NHZ003-005-008-011-012-014-VTZ005-008-291000-
NORTHERN NEW ENGLAND

CITY           SKY/WX    TMP DP  RH WIND       PRES   REMARKS
PORTLAND ME    PTCLDY    34  16  47 W3        30.02R
BANGOR ME      CLEAR     31  16  54 W5        29.96S WCI  26
CONCORD NH     CLEAR     30  20  66 CALM      30.03R
MANCHESTER NH  PTCLDY    33  20  58 W3        30.03R
NASHUA NH      PTCLDY    31  22  69 CALM      30.06R
PORTSMOUTH NH  PTCLDY    33  21  59 W5        30.03R WCI  29
JAFFREY NH     PTCLDY    29  19  66 CALM      30.01S
KEENE NH       CLOUDY    30  23  74 CALM      30.04S
BURLINGTON VT  CLOUDY    35  18  49 W7        30.02S WCI  29
MT. WASHINGTON FOG        5   5 100 NW66G72     N/A  VSB 0   WCI -27
$$

NYZ052-076-291000-
EASTERN NEW YORK

CITY           SKY/WX    TMP DP  RH WIND       PRES   REMARKS
ALBANY         MOCLDY    34  24  67 NW6       30.11R WCI  29
NEW YORK CITY  CLOUDY    40  24  53 NW13      30.13S
$$

ANZALL-291000-
MARINE OBSERVATIONS

STATION/POSITION TIME  TEMP    WIND        PRES    VSBY  WAVE
                       AIR SEA DIR/SP/G                  HT/PER
                 (UTC) (F)     (DEG/KT/KT) (MB)    (MI)  (FT/S)
BOSTON BUOY      0850   39 44  310/ 17/ 21 1017.2R         2/ 3
BUZZARDS BAY     0800          320/ 20/ 22 1018.4R
NANTUCKET SOUND  0850   40 44  320/ 17/ 21 1016.9R         2/ 3
MASS BAY-STELLWA 0804   39 44  290/ 16/ 19   N/A    1 7/8  2/ 3
ISLE OF SHOALS   0900   37     290/ 13/ 14 1016.4R
S OF BLOCK IS    0808      51                N/A           6/ 8
$$

......................KEY.........................
  SKY/WX - SKY CONDITION/PRESENT WEATHER
  TMP    - TEMPERATURE IN FAHRENHEIT
  DWPT   - DEWPOINT IN FAHRENHEIT
  RH     - RELATIVE HUMIDITY IN PERCENT
  WIND   - DIRECTION AND SPEED IN MPH
  PRES   - MEAN SEA LEVEL PRESSURE IN INCHES OF HG
  WCI    - WIND CHILL INDEX
  VSB    - VISIBILITY IN MILES
  HX     - HEAT INDEX
  TC     - TEMPERATURE IN CELSIUS
  VRB    - VARIABLE WIND DIRECTION
  N/A    - NOT AVAILABLE


USA.gov is the U.S. government's official web portal to all federal, state and local government web resources and services.